Weather History for Hinckley, MN

Change the Weather History Date:

Wednesday, February 19, 2014

  Actual Average (KJMR) Record (KJMR)
Temperature  
Mean Temperature 24 °F -  
Max Temperature 39 °F 29 °F 55 °F (1981)
Min Temperature 8 °F 4 °F -24 °F (1936)
Degree Days  
Heating Degree Days 42    
Moisture  
Dew Point 22 °F    
Average Humidity 80    
Maximum Humidity 100    
Minimum Humidity 56    
Precipitation  
Precipitation 0.00 in - - ()
Sea Level Pressure  
Sea Level Pressure 29.72 in    
Wind  
Wind Speed 6 mph (South)    
Max Wind Speed 9 mph    
Max Gust Speed -    
Visibility 9 miles    
Events Fog    
Averages and records for this station are not official NWS values.
T = Trace of Precipitation, MM = Missing Value Source: NWS Daily Summary

Daily Weather History Graph

Daily Weather History Graph

Search for Another Location

Airport:

Trip Planner

Search our weather history database for the weather conditions in past years. The results will help you decide how hot, cold, wet, or windy it might be!

Date:

Astronomy

Feb. 19, 2014 Rise Set
Actual Time 7:07 AM CST 5:43 PM CST
Civil Twilight 6:37 AM CST 6:14 PM CST
Nautical Twilight 6:02 AM CST 6:49 PM CST
Astronomical Twilight 5:27 AM CST 7:23 PM CST
Moon 10:56 PM CST (2/19) 8:57 AM CST (2/19)
Length of Visible Light 11h 37m
Length of Day
10h 36m
Waning Gibbous, 79% of the Moon is Illuminated
Feb 19
Waning Gibbous
Feb 22
Last Quarter
Mar 1
New
Mar 8
First Quarter
Mar 16
Full

Hourly Weather History & Observations

Time (CST) Temp. Windchill Dew Point Humidity Pressure Visibility Wind Dir Wind Speed Gust Speed Precip Events Conditions
12:00 AM 30.2 °F 23.4 °F 21.2 °F 69% 29.69 in 10.0 mi West 6.9 mph - N/A   Clear
12:20 AM 30.2 °F 23.4 °F 21.2 °F 69% 29.69 in 10.0 mi West 6.9 mph - N/A   Clear
12:40 AM 28.4 °F 21.2 °F 21.2 °F 74% 29.69 in 10.0 mi West 6.9 mph - N/A   Clear
12:59 AM 28.4 °F 23.3 °F 21.2 °F 74% 29.69 in 10.0 mi West 4.6 mph - N/A   Clear
1:20 AM 24.8 °F 16.9 °F 19.4 °F 80% 29.69 in 10.0 mi West 6.9 mph - N/A   Clear
1:40 AM 24.8 °F 19.1 °F 21.2 °F 86% 29.69 in 10.0 mi West 4.6 mph - N/A   Clear
2:00 AM 24.8 °F 20.5 °F 21.2 °F 86% 29.71 in 10.0 mi West 3.5 mph - N/A   Clear
2:20 AM 21.2 °F 14.9 °F 19.4 °F 93% 29.71 in 10.0 mi West 4.6 mph - N/A   Clear
2:39 AM 23.0 °F 14.7 °F 21.2 °F 93% 29.72 in 10.0 mi West 6.9 mph - N/A   Clear
3:00 AM 21.2 °F 13.6 °F 19.4 °F 93% 29.72 in 10.0 mi West 5.8 mph - N/A   Clear
3:20 AM 23.0 °F 17.0 °F 21.2 °F 93% 29.72 in 10.0 mi West 4.6 mph - N/A   Clear
3:40 AM 21.2 °F 14.9 °F 19.4 °F 93% 29.71 in 10.0 mi West 4.6 mph - N/A   Clear
4:00 AM 23.0 °F 15.8 °F 19.4 °F 86% 29.71 in 10.0 mi West 5.8 mph - N/A   Clear
4:20 AM 17.6 °F 9.3 °F 14.0 °F 86% 29.71 in 10.0 mi WSW 5.8 mph - N/A   Clear
4:40 AM 19.4 °F 10.4 °F 17.6 °F 93% 29.72 in 10.0 mi West 6.9 mph - N/A   Clear
4:59 AM 21.2 °F 13.6 °F 19.4 °F 93% 29.73 in 10.0 mi West 5.8 mph - N/A   Clear
5:20 AM 14.0 °F 8.2 °F 14.0 °F 100% 29.73 in 10.0 mi South 3.5 mph - N/A   Clear
5:40 AM 14.0 °F 8.2 °F 14.0 °F 100% 29.73 in 5.0 mi South 3.5 mph - N/A   Clear
6:00 AM 12.2 °F 6.1 °F 12.2 °F 100% 29.73 in 1.5 mi South 3.5 mph - N/A   Mist
6:20 AM 10.4 °F 2.2 °F 8.6 °F 92% 29.74 in 0.2 mi SSW 4.6 mph - N/A Fog Light Freezing Fog
6:40 AM 10.4 °F - 8.6 °F 92% 29.73 in 0.8 mi Calm Calm - N/A   Mostly Cloudy
7:00 AM 10.4 °F 2.2 °F 6.8 °F 85% 29.74 in 0.2 mi South 4.6 mph - N/A Fog Light Freezing Fog
7:20 AM 10.4 °F - 8.6 °F 92% 29.74 in 0.2 mi Calm Calm - N/A Fog Light Freezing Fog
7:40 AM 8.6 °F 2.0 °F 6.8 °F 92% 29.75 in 0.2 mi South 3.5 mph - N/A Fog Light Freezing Fog
8:00 AM 10.4 °F 2.2 °F 8.6 °F 92% 29.75 in 0.2 mi South 4.6 mph - N/A Fog Light Freezing Fog
8:20 AM 12.2 °F 6.1 °F 10.4 °F 92% 29.75 in 0.2 mi SSW 3.5 mph - N/A Fog Light Freezing Fog
8:40 AM 12.2 °F 6.1 °F 10.4 °F 92% 29.75 in 0.5 mi South 3.5 mph - N/A Fog Light Freezing Fog
9:00 AM 15.8 °F 8.6 °F 14.0 °F 93% 29.75 in 5.0 mi South 4.6 mph - N/A   Clear
9:20 AM 19.4 °F 12.8 °F 17.6 °F 93% 29.76 in 10.0 mi South 4.6 mph - N/A   Clear
9:40 AM 19.4 °F 10.4 °F 19.4 °F 100% 29.77 in 10.0 mi South 6.9 mph - N/A   Clear
10:00 AM 21.2 °F 14.9 °F 21.2 °F 100% 29.78 in 10.0 mi South 4.6 mph - N/A   Clear
10:20 AM 23.0 °F 17.0 °F 23.0 °F 100% 29.77 in 10.0 mi South 4.6 mph - N/A   Clear
10:41 AM 24.8 °F 16.9 °F 23.0 °F 93% 29.77 in 10.0 mi South 6.9 mph - N/A   Clear
11:00 AM 26.6 °F 20.0 °F 24.8 °F 93% 29.77 in 10.0 mi South 5.8 mph - N/A   Clear
11:20 AM 28.4 °F 21.2 °F 23.0 °F 80% 29.77 in 10.0 mi South 6.9 mph - N/A   Clear
11:40 AM 30.2 °F 23.4 °F 23.0 °F 75% 29.77 in 10.0 mi South 6.9 mph - N/A   Clear
12:00 PM 32.0 °F 24.2 °F 23.0 °F 69% 29.76 in 10.0 mi South 9.2 mph - N/A   Clear
12:20 PM 32.0 °F 24.8 °F 23.0 °F 69% 29.76 in 10.0 mi South 8.1 mph - N/A   Clear
12:40 PM 33.8 °F 27.0 °F 23.0 °F 65% 29.75 in 10.0 mi South 8.1 mph - N/A   Clear
1:01 PM 35.6 °F 29.2 °F 23.0 °F 60% 29.75 in 10.0 mi SSW 8.1 mph - N/A   Clear
1:20 PM 37.4 °F 30.8 °F 23.0 °F 56% 29.75 in 10.0 mi South 9.2 mph - N/A   Clear
1:40 PM 37.4 °F 33.8 °F 24.8 °F 60% 29.74 in 10.0 mi South 4.6 mph - N/A   Clear
2:00 PM 37.4 °F 33.8 °F 23.0 °F 56% 29.73 in 10.0 mi South 4.6 mph - N/A   Clear
2:20 PM 37.4 °F 30.8 °F 23.0 °F 56% 29.73 in 10.0 mi South 9.2 mph - N/A   Clear
2:41 PM 37.4 °F 30.8 °F 24.8 °F 60% 29.73 in 10.0 mi South 9.2 mph - N/A   Clear
3:00 PM 39.2 °F 33.0 °F 26.6 °F 61% 29.74 in 10.0 mi South 9.2 mph - N/A   Clear
3:20 PM 37.4 °F 32.1 °F 24.8 °F 60% 29.74 in 10.0 mi South 6.9 mph - N/A   Clear
3:40 PM 39.2 °F 34.2 °F 26.6 °F 61% 29.73 in 10.0 mi South 6.9 mph - N/A   Clear
4:00 PM 39.2 °F 33.0 °F 26.6 °F 61% 29.73 in 10.0 mi South 9.2 mph - N/A   Clear
4:21 PM 37.4 °F 32.1 °F 26.6 °F 65% 29.73 in 10.0 mi South 6.9 mph - N/A   Clear
4:40 PM 37.4 °F 30.8 °F 26.6 °F 65% 29.73 in 10.0 mi South 9.2 mph - N/A   Clear
5:00 PM 37.4 °F 31.4 °F 26.6 °F 65% 29.73 in 10.0 mi South 8.1 mph - N/A   Clear
5:20 PM 35.6 °F 31.7 °F 26.6 °F 70% 29.72 in 10.0 mi South 4.6 mph - N/A   Scattered Clouds
5:40 PM 35.6 °F 31.7 °F 26.6 °F 70% 29.72 in 10.0 mi SSE 4.6 mph - N/A   Scattered Clouds
6:01 PM 37.4 °F 33.8 °F 26.6 °F 65% 29.71 in 10.0 mi SSE 4.6 mph - N/A   Mostly Cloudy
6:20 PM 37.4 °F 32.1 °F 28.4 °F 70% 29.72 in 10.0 mi SSE 6.9 mph - N/A   Overcast
6:40 PM 37.4 °F 31.4 °F 28.4 °F 70% 29.71 in 10.0 mi SSE 8.1 mph - N/A   Overcast
7:01 PM 37.4 °F 31.4 °F 28.4 °F 70% 29.71 in 10.0 mi SSE 8.1 mph - N/A   Overcast
7:20 PM 35.6 °F 30.7 °F 28.4 °F 75% 29.71 in 10.0 mi SE 5.8 mph - N/A   Overcast
7:41 PM 35.6 °F 29.9 °F 30.2 °F 81% 29.70 in 10.0 mi SSE 6.9 mph - N/A   Overcast
8:00 PM 35.6 °F 30.7 °F 30.2 °F 81% 29.70 in 10.0 mi SSE 5.8 mph - N/A   Overcast
8:20 PM 35.6 °F 30.7 °F 30.2 °F 81% 29.70 in 10.0 mi SSE 5.8 mph - N/A   Overcast
8:41 PM 33.8 °F 29.6 °F 30.2 °F 87% 29.69 in 10.0 mi SE 4.6 mph - N/A   Scattered Clouds
9:00 PM 33.8 °F 28.6 °F 30.2 °F 87% 29.69 in 10.0 mi SE 5.8 mph - N/A   Clear
9:21 PM 33.8 °F 29.6 °F 28.4 °F 81% 29.69 in 10.0 mi ESE 4.6 mph - N/A   Clear
9:40 PM 33.8 °F 29.6 °F 28.4 °F 81% 29.69 in 10.0 mi ESE 4.6 mph - N/A   Scattered Clouds
10:01 PM 33.8 °F 27.7 °F 28.4 °F 81% 29.67 in 10.0 mi ESE 6.9 mph - N/A   Overcast
10:20 PM 33.8 °F 28.6 °F 28.4 °F 81% 29.67 in 10.0 mi SE 5.8 mph - N/A   Mostly Cloudy
10:40 PM 33.8 °F 30.8 °F 28.4 °F 81% 29.67 in 10.0 mi SSE 3.5 mph - N/A   Scattered Clouds
11:00 PM 33.8 °F 30.8 °F 28.4 °F 81% 29.67 in 10.0 mi SE 3.5 mph - N/A   Mostly Cloudy
11:20 PM 33.8 °F 27.7 °F 28.4 °F 81% 29.68 in 10.0 mi SE 6.9 mph - N/A   Overcast
11:40 PM 33.8 °F 29.6 °F 28.4 °F 81% 29.67 in 10.0 mi SE 4.6 mph - N/A   Overcast